This demonstration page uses our WeatherBlox Daily Observations layout. Learn more.

Left ArrowRight Arrow

41.86663, -103.66717

Hourly Observations for December 12, 2017

Temp ( °F °C ) Dew Point ( °F °C ) Humidity (%) Winds ( mph kmh ) Pressure ( in mb ) Visibility ( mi km ) Precip ( " mm )
12:53 am 00:53 Clear 24 -4.4 14 -10 65 65 NNW 8 13 30.43 1030 10 16 0.00 0.00
1:53 am 01:53 Clear 21 -6.1 13 -10.6 71 71 W 7 11 30.43 1031 10 16 0.00 0.00
2:53 am 02:53 Clear 23 -5 14 -10 68 68 NW 7 11 30.40 1029 10 16 0.00 0.00
3:53 am 03:53 Clear 24 -4.4 15 -9.4 68 68 WNW 7 11 30.39 1029 10 16 0.00 0.00
4:53 am 04:53 Clear 24 -4.4 15 -9.4 68 68 WNW 8 13 30.38 1029 10 16 0.00 0.00
5:53 am 05:53 Clear 21 -6.1 14 -10 74 74 WNW 8 13 30.40 1030 10 16 0.00 0.00
6:53 am 06:53 Clear 21 -6.1 14 -10 74 74 NW 8 13 30.39 1029 10 16 0.00 0.00
7:53 am 07:53 Sunny 26 -3.3 16 -8.9 66 66 NW 12 19 30.38 1029 10 16 0.00 0.00
8:53 am 08:53 Sunny 34 1.1 19 -7.2 54 54 NNW 10 17 30.35 1028 10 16 0.00 0.00
9:53 am 09:53 Sunny 42 5.6 19 -7.2 40 40 NW 10 17 30.32 1027 10 16 0.00 0.00
10:53 am 10:53 Sunny 50 10 19 -7.2 29 29 WNW 10 17 30.27 1025 10 16 0.00 0.00
11:53 am 11:53 Sunny 57 13.9 18 -7.8 22 22 WNW 13 20 30.21 1023 10 16 0.00 0.00
12:53 pm 12:53 Sunny 64 17.8 16 -8.9 15 15 WNW 16 26 30.14 1021 10 16 0.00 0.00
1:53 pm 13:53 Sunny 65 18.3 16 -8.9 15 15 WNW 16 26 30.11 1020 10 16 0.00 0.00
2:53 pm 14:53 Sunny 64 17.8 16 -8.9 15 15 W 14 22 30.07 1018 10 16 0.00 0.00
3:53 pm 15:53 Sunny 61 16.1 15 -9.4 17 17 W 15 24 30.06 1018 10 16 0.00 0.00
4:53 pm 16:53 Clear 52 11.1 15 -9.4 23 23 W 10 17 30.08 1019 10 16 0.00 0.00
5:53 pm 17:53 Clear 49 9.4 15 -9.4 26 26 W 12 19 30.09 1019 10 16 0.00 0.00
6:53 pm 18:53 Clear 43 6.1 16 -8.9 34 34 NW 8 13 30.10 1019 10 16 0.00 0.00
7:53 pm 19:53 Clear 39 3.9 15 -9.4 38 38 WNW 12 19 30.06 1018 10 16 0.00 0.00
8:53 pm 20:53 Clear 34 1.1 14 -10 44 44 NW 10 17 30.06 1018 10 16 0.00 0.00
9:53 pm 21:53 Clear 32 0 14 -10 47 47 NW 8 13 30.05 1018 10 16 0.00 0.00
10:53 pm 22:53 Clear 42 5.6 15 -9.4 33 33 W 15 24 30.00 1016 10 16 0.00 0.00
11:53 pm 23:53 Clear 37 2.8 15 -9.4 41 41 NW 12 19 30.00 1016 10 16 0.00 0.00

Powered by AerisWeather